This is the latest recevied weather packets stored in our database for station/object OK1ZDJ-13. If no packets are shown the sender has not sent any weather packets the latest 10 day(s).
| Time | Temp. | Humidity | Pressure | Rain* | Wind** | Luminosity | Snow |
|---|---|---|---|---|---|---|---|
| 1777432048 | -1.11° C | 72% | 1026.4 hPa | - | - | - | - |
| 1777431448 | -1.11° C | 73% | 1026.5 hPa | - | - | - | - |
| 1777430848 | -1.11° C | 72% | 1026.4 hPa | - | - | - | - |
| 1777430248 | -1.11° C | 69% | 1026.5 hPa | - | - | - | - |
| 1777429648 | -0.56° C | 70% | 1026.5 hPa | - | - | - | - |
| 1777429048 | -0.56° C | 69% | 1026.4 hPa | - | - | - | - |
| 1777428448 | -0.56° C | 67% | 1026.4 hPa | - | - | - | - |
| 1777427848 | -0.56° C | 67% | 1026.3 hPa | - | - | - | - |
| 1777427248 | 0° C | 67% | 1026.2 hPa | - | - | - | - |
| 1777426648 | 0° C | 65% | 1026.1 hPa | - | - | - | - |
| 1777426048 | 0° C | 66% | 1026 hPa | - | - | - | - |
| 1777425448 | 0.56° C | 65% | 1026 hPa | - | - | - | - |
| 1777424848 | 0.56° C | 64% | 1025.9 hPa | - | - | - | - |
| 1777424251 | 0.56° C | 62% | 1026 hPa | - | - | - | - |
| 1777423648 | 1.11° C | 60% | 1026 hPa | - | - | - | - |
| 1777423048 | 1.11° C | 60% | 1026.1 hPa | - | - | - | - |
| 1777422448 | 1.67° C | 62% | 1026 hPa | - | - | - | - |
| 1777421848 | 1.67° C | 60% | 1026 hPa | - | - | - | - |
| 1777421248 | 1.67° C | 60% | 1026.1 hPa | - | - | - | - |
| 1777420648 | 1.67° C | 55% | 1026.1 hPa | - | - | - | - |
| 1777420049 | 2.22° C | 55% | 1026 hPa | - | - | - | - |
| 1777419448 | 2.22° C | 54% | 1026.1 hPa | - | - | - | - |
| 1777418848 | 2.78° C | 56% | 1026.1 hPa | - | - | - | - |
| 1777418248 | 3.33° C | 55% | 1025.9 hPa | - | - | - | - |
| 1777417048 | 3.89° C | 53% | 1025.8 hPa | - | - | - | - |
* Rain since midnight (hover to see other rain measurements)
** Current wind speed in m/s (hover to see current wind gust speed)